Location: Easter Hill Village
(37.9235°N, 122.3444°W)
Time: 20:12:51
(UTC+00:00)

CZ-4B R/B - Pass Details

Date: 16 September 2019
Orbit: 489 x 651 km, 97.8° (Epoch: 15 October)

Event Time Altitude Azimuth Distance (km) Brightness Sun altitude
Rises 13:21:51 0° 1° (N) 2,966 6.7 -6.7°
Reaches altitude 10° 13:24:14 10° 352° (N) 2,060 5.8 -6.3°
Maximum altitude 13:28:14 32° 289° (WNW) 1,114 3.9 -5.5°
Drops below altitude 10° 13:32:13 10° 227° (SW) 2,043 5.2 -4.7°
Sets 13:34:34 0° 217° (SW) 2,937 6.1 -4.2°
